TimeCST,TemperatureF,Dew PointF,Humidity,Sea Level PressureIn,VisibilityMPH,Wind Direction,Wind SpeedMPH,Gust SpeedMPH,PrecipitationIn,Events,Conditions,WindDirDegrees,DateUTC
12:52 AM,26.1,17.1,69,30.37,10.0,ESE,6.9,-,N/A,,Clear,120,2013-03-06 06:52:00
1:52 AM,25.0,17.1,72,30.38,10.0,SE,8.1,-,N/A,,Clear,130,2013-03-06 07:52:00
2:52 AM,25.0,17.1,72,30.37,10.0,South,8.1,-,N/A,,Clear,170,2013-03-06 08:52:00
3:52 AM,23.0,17.1,78,30.34,10.0,SE,8.1,-,N/A,,Clear,140,2013-03-06 09:52:00
4:52 AM,24.1,17.1,75,30.33,10.0,SE,9.2,-,N/A,,Clear,140,2013-03-06 10:52:00
5:52 AM,25.0,17.1,72,30.34,10.0,SE,11.5,-,N/A,,Clear,140,2013-03-06 11:52:00
6:52 AM,24.1,17.1,75,30.36,10.0,SSE,11.5,-,N/A,,Clear,150,2013-03-06 12:52:00
7:52 AM,25.0,18.0,75,30.35,10.0,SSE,15.0,-,N/A,,Clear,160,2013-03-06 13:52:00
8:52 AM,30.0,21.0,69,30.36,10.0,SSE,19.6,-,N/A,,Clear,150,2013-03-06 14:52:00
9:52 AM,34.0,21.0,59,30.34,10.0,SSE,24.2,28.8,N/A,,Clear,160,2013-03-06 15:52:00
10:52 AM,37.0,19.9,50,30.30,10.0,SSE,24.2,32.2,N/A,,Clear,160,2013-03-06 16:52:00
11:52 AM,39.9,21.0,47,30.28,10.0,South,28.8,33.4,N/A,,Clear,170,2013-03-06 17:52:00
12:52 PM,43.0,23.0,45,30.23,10.0,SSE,24.2,33.4,N/A,,Clear,160,2013-03-06 18:52:00
1:52 PM,45.0,23.0,42,30.19,10.0,SSE,28.8,34.5,N/A,,Clear,160,2013-03-06 19:52:00
2:52 PM,48.9,23.0,36,30.15,10.0,South,26.5,38.0,N/A,,Clear,170,2013-03-06 20:52:00
3:52 PM,48.0,24.1,39,30.12,10.0,SSE,28.8,35.7,N/A,,Clear,160,2013-03-06 21:52:00
4:52 PM,46.0,25.0,44,30.11,10.0,SSE,21.9,32.2,N/A,,Clear,150,2013-03-06 22:52:00
5:52 PM,46.0,24.1,42,30.09,10.0,South,23.0,29.9,N/A,,Clear,170,2013-03-06 23:52:00
6:52 PM,39.9,27.0,60,30.09,10.0,SE,13.8,-,N/A,,Clear,140,2013-03-07 00:52:00
7:52 PM,37.0,26.1,65,30.10,10.0,SSE,13.8,-,N/A,,Clear,150,2013-03-07 01:52:00
8:52 PM,36.0,24.1,62,30.09,10.0,SSE,13.8,-,N/A,,Clear,150,2013-03-07 02:52:00
9:52 PM,35.1,25.0,67,30.08,10.0,SSE,17.3,-,N/A,,Clear,160,2013-03-07 03:52:00
10:52 PM,35.1,25.0,67,30.06,10.0,SSE,17.3,-,N/A,,Clear,160,2013-03-07 04:52:00
11:52 PM,35.6,24.8,65,30.01,10.0,SSE,18.4,-,N/A,,Clear,160,2013-03-07 05:52:00